Time,TemperatureF,DewpointF,PressureIn,WindDirection,WindDirectionDegrees,WindSpeedMPH,WindSpeedGustMPH,Humidity,HourlyPrecipIn,Conditions,Clouds,dailyrainin,SoftwareType,DateUTC
2013-02-22 00:00:00,23.5,12.8,30.31,West,270,1.6,3.1,51,0.00,,,0.00,fowsr,2013-02-22 05:00:00,
2013-02-22 00:05:00,23.5,13.1,30.31,North,0,0.7,2.2,52,0.00,,,0.00,fowsr,2013-02-22 05:05:00,
2013-02-22 00:10:00,23.5,13.1,30.31,NE,45,1.6,2.2,52,0.00,,,0.00,fowsr,2013-02-22 05:10:00,
2013-02-22 00:15:00,23.4,12.9,30.30,East,90,2.2,3.1,52,0.00,,,0.00,fowsr,2013-02-22 05:15:00,
2013-02-22 00:20:00,23.2,12.8,30.30,NE,45,1.6,3.8,52,0.00,,,0.00,fowsr,2013-02-22 05:20:00,
2013-02-22 00:25:00,23.2,13.1,30.31,North,0,0.7,2.2,53,0.00,,,0.00,fowsr,2013-02-22 05:25:00,
2013-02-22 00:30:00,23.2,13.1,30.30,North,0,3.8,6.0,53,0.00,,,0.00,fowsr,2013-02-22 05:30:00,
2013-02-22 00:35:00,23.0,12.9,30.29,SW,225,2.2,3.1,53,0.00,,,0.00,fowsr,2013-02-22 05:35:00,
2013-02-22 00:40:00,23.0,12.9,30.30,North,0,1.6,3.8,53,0.00,,,0.00,fowsr,2013-02-22 05:40:00,
2013-02-22 00:45:00,22.8,13.0,30.30,SE,135,0.7,2.2,54,0.00,,,0.00,fowsr,2013-02-22 05:45:00,
2013-02-22 00:50:00,22.8,13.0,30.30,West,270,1.6,2.2,54,0.00,,,0.00,fowsr,2013-02-22 05:50:00,
2013-02-22 00:55:00,22.6,12.8,30.30,West,270,2.2,6.0,54,0.00,,,0.00,fowsr,2013-02-22 05:55:00,
2013-02-22 01:00:00,22.6,12.8,30.30,North,0,0.0,1.6,54,0.00,,,0.00,fowsr,2013-02-22 06:00:00,
2013-02-22 01:05:00,22.6,12.8,30.30,North,0,0.0,1.6,54,0.00,,,0.00,fowsr,2013-02-22 06:05:00,
2013-02-22 01:10:00,22.3,12.5,30.30,NW,315,0.7,2.2,54,0.00,,,0.00,fowsr,2013-02-22 06:10:00,
2013-02-22 01:15:00,22.3,12.5,30.30,NW,315,0.7,1.6,54,0.00,,,0.00,fowsr,2013-02-22 06:15:00,
2013-02-22 01:20:00,22.1,12.3,30.31,NE,45,0.7,1.6,54,0.00,,,0.00,fowsr,2013-02-22 06:20:00,
2013-02-22 01:25:00,21.9,12.5,30.30,NW,315,0.7,2.2,55,0.00,,,0.00,fowsr,2013-02-22 06:25:00,
2013-02-22 01:30:00,21.9,12.5,30.30,NE,45,1.6,2.2,55,0.00,,,0.00,fowsr,2013-02-22 06:30:00,
2013-02-22 01:35:00,22.1,12.6,30.30,North,0,3.1,6.0,55,0.00,,,0.00,fowsr,2013-02-22 06:35:00,
2013-02-22 01:40:00,22.1,12.6,30.30,NE,45,2.2,3.1,55,0.00,,,0.00,fowsr,2013-02-22 06:40:00,
2013-02-22 01:45:00,22.1,12.6,30.31,NNW,337,2.2,4.5,55,0.00,,,0.00,fowsr,2013-02-22 06:45:00,
2013-02-22 01:50:00,22.1,12.9,30.31,North,0,3.1,3.8,56,0.00,,,0.00,fowsr,2013-02-22 06:50:00,
2013-02-22 01:55:00,22.1,12.9,30.31,NE,45,1.6,3.1,56,0.00,,,0.00,fowsr,2013-02-22 06:55:00,
2013-02-22 02:00:00,22.1,12.9,30.32,NW,315,3.1,4.5,56,0.00,,,0.00,fowsr,2013-02-22 07:00:00,
2013-02-22 02:05:00,22.1,12.9,30.32,NW,315,3.1,5.4,56,0.00,,,0.00,fowsr,2013-02-22 07:05:00,
2013-02-22 02:10:00,22.1,12.9,30.32,West,270,3.1,4.5,56,0.00,,,0.00,fowsr,2013-02-22 07:10:00,
2013-02-22 02:15:00,22.1,12.9,30.33,NE,45,2.2,3.8,56,0.00,,,0.00,fowsr,2013-02-22 07:15:00,
2013-02-22 02:20:00,21.9,12.7,30.33,NE,45,0.7,1.6,56,0.00,,,0.00,fowsr,2013-02-22 07:20:00,
2013-02-22 02:25:00,21.9,12.7,30.33,South,180,0.0,0.7,56,0.00,,,0.00,fowsr,2013-02-22 07:25:00,
2013-02-22 02:30:00,21.7,12.6,30.33,SE,135,0.7,1.6,56,0.00,,,0.00,fowsr,2013-02-22 07:30:00,
2013-02-22 02:35:00,21.7,12.6,30.32,West,270,1.6,1.6,56,0.00,,,0.00,fowsr,2013-02-22 07:35:00,
2013-02-22 02:40:00,21.6,12.4,30.32,East,90,0.7,1.6,56,0.00,,,0.00,fowsr,2013-02-22 07:40:00,
2013-02-22 02:45:00,21.4,12.2,30.33,NW,315,1.6,3.8,56,0.00,,,0.00,fowsr,2013-02-22 07:45:00,
2013-02-22 02:50:00,21.4,12.2,30.33,North,0,0.0,1.6,56,0.00,,,0.00,fowsr,2013-02-22 07:50:00,
2013-02-22 02:55:00,21.4,12.5,30.33,NE,45,0.7,1.6,57,0.00,,,0.00,fowsr,2013-02-22 07:55:00,
2013-02-22 03:00:00,21.4,12.5,30.33,SSW,202,0.0,0.7,57,0.00,,,0.00,fowsr,2013-02-22 08:00:00,
2013-02-22 03:05:00,21.4,12.5,30.33,NE,45,0.7,1.6,57,0.00,,,0.00,fowsr,2013-02-22 08:05:00,
2013-02-22 03:10:00,21.2,12.3,30.33,West,270,2.2,4.5,57,0.00,,,0.00,fowsr,2013-02-22 08:10:00,
2013-02-22 03:15:00,21.2,12.3,30.34,West,270,0.0,0.7,57,0.00,,,0.00,fowsr,2013-02-22 08:15:00,
2013-02-22 03:20:00,21.2,12.3,30.34,SE,135,0.0,0.0,57,0.00,,,0.00,fowsr,2013-02-22 08:20:00,
2013-02-22 03:25:00,21.0,12.4,30.34,SW,225,0.0,0.7,58,0.00,,,0.00,fowsr,2013-02-22 08:25:00,
2013-02-22 03:30:00,21.0,12.4,30.33,NW,315,0.0,1.6,58,0.00,,,0.00,fowsr,2013-02-22 08:30:00,
2013-02-22 03:35:00,21.0,12.4,30.33,NE,45,0.7,2.2,58,0.00,,,0.00,fowsr,2013-02-22 08:35:00,
2013-02-22 03:40:00,21.0,12.7,30.33,NE,45,1.6,3.1,59,0.00,,,0.00,fowsr,2013-02-22 08:40:00,
2013-02-22 03:45:00,21.0,12.7,30.33,NW,315,1.6,3.8,59,0.00,,,0.00,fowsr,2013-02-22 08:45:00,
2013-02-22 03:50:00,21.0,12.7,30.33,NE,45,1.6,2.2,59,0.00,,,0.00,fowsr,2013-02-22 08:50:00,
2013-02-22 03:55:00,21.0,12.7,30.33,South,180,0.7,1.6,59,0.00,,,0.00,fowsr,2013-02-22 08:55:00,
2013-02-22 04:00:00,21.0,12.7,30.34,West,270,0.7,2.2,59,0.00,,,0.00,fowsr,2013-02-22 09:00:00,
2013-02-22 04:05:00,21.0,12.7,30.34,South,180,0.0,0.0,59,0.00,,,0.00,fowsr,2013-02-22 09:05:00,
2013-02-22 04:10:00,21.0,12.7,30.34,NW,315,2.2,3.8,59,0.00,,,0.00,fowsr,2013-02-22 09:10:00,
2013-02-22 04:15:00,21.0,13.0,30.34,NW,315,0.7,2.2,60,0.00,,,0.00,fowsr,2013-02-22 09:15:00,
2013-02-22 04:25:00,21.2,12.9,30.33,NE,45,2.2,4.5,59,0.00,,,0.00,fowsr,2013-02-22 09:25:00,
2013-02-22 04:35:00,21.4,13.0,30.35,NW,315,0.0,1.6,59,0.00,,,0.00,fowsr,2013-02-22 09:35:00,
2013-02-22 04:40:00,21.4,13.0,30.35,West,270,1.6,3.1,59,0.00,,,0.00,fowsr,2013-02-22 09:40:00,
2013-02-22 04:45:00,21.4,13.0,30.34,NW,315,1.6,3.1,59,0.00,,,0.00,fowsr,2013-02-22 09:45:00,
2013-02-22 04:50:00,21.4,13.0,30.34,North,0,0.0,0.7,59,0.00,,,0.00,fowsr,2013-02-22 09:50:00,
2013-02-22 05:00:00,21.4,13.0,30.35,North,0,3.1,6.0,59,0.00,,,0.00,fowsr,2013-02-22 10:00:00,
2013-02-22 05:10:00,21.6,13.2,30.35,NW,315,0.7,1.6,59,0.00,,,0.00,fowsr,2013-02-22 10:10:00,
2013-02-22 05:15:00,21.6,13.2,30.35,SSE,157,0.0,0.7,59,0.00,,,0.00,fowsr,2013-02-22 10:15:00,
2013-02-22 05:20:00,21.6,13.2,30.36,SE,135,0.0,0.0,59,0.00,,,0.00,fowsr,2013-02-22 10:20:00,
2013-02-22 05:25:00,21.4,13.0,30.37,East,90,0.0,0.7,59,0.00,,,0.00,fowsr,2013-02-22 10:25:00,
2013-02-22 05:35:00,21.4,13.0,30.38,South,180,0.0,0.0,59,0.00,,,0.00,fowsr,2013-02-22 10:35:00,
2013-02-22 05:40:00,21.4,13.0,30.38,West,270,0.0,0.0,59,0.00,,,0.00,fowsr,2013-02-22 10:40:00,
2013-02-22 05:45:00,21.4,13.3,30.38,East,90,0.0,0.0,60,0.00,,,0.00,fowsr,2013-02-22 10:45:00,
2013-02-22 05:55:00,21.4,13.3,30.38,NE,45,0.7,1.6,60,0.00,,,0.00,fowsr,2013-02-22 10:55:00,
2013-02-22 06:00:00,21.6,13.5,30.38,East,90,0.7,1.6,60,0.00,,,0.00,fowsr,2013-02-22 11:00:00,
2013-02-22 06:05:00,21.6,13.5,30.38,West,270,0.0,1.6,60,0.00,,,0.00,fowsr,2013-02-22 11:05:00,
2013-02-22 06:10:00,21.6,13.5,30.38,NE,45,0.7,1.6,60,0.00,,,0.00,fowsr,2013-02-22 11:10:00,
2013-02-22 06:15:00,21.7,13.6,30.37,NE,45,0.7,2.2,60,0.00,,,0.00,fowsr,2013-02-22 11:15:00,
2013-02-22 06:25:00,21.9,13.8,30.36,North,0,0.7,1.6,60,0.00,,,0.00,fowsr,2013-02-22 11:25:00,
2013-02-22 06:30:00,21.9,13.8,30.35,North,0,1.6,1.6,60,0.00,,,0.00,fowsr,2013-02-22 11:30:00,
2013-02-22 06:35:00,21.9,13.8,30.35,North,0,0.7,2.2,60,0.00,,,0.00,fowsr,2013-02-22 11:35:00,
2013-02-22 06:40:00,21.9,13.8,30.36,NW,315,0.7,1.6,60,0.00,,,0.00,fowsr,2013-02-22 11:40:00,
2013-02-22 06:45:00,22.1,14.0,30.37,West,270,0.7,2.2,60,0.00,,,0.00,fowsr,2013-02-22 11:45:00,
2013-02-22 06:50:00,22.1,14.0,30.38,West,270,0.7,1.6,60,0.00,,,0.00,fowsr,2013-02-22 11:50:00,
2013-02-22 06:55:00,22.3,14.1,30.38,West,270,0.7,1.6,60,0.00,,,0.00,fowsr,2013-02-22 11:55:00,
2013-02-22 07:00:00,22.3,14.1,30.39,NW,315,0.0,1.6,60,0.00,,,0.00,fowsr,2013-02-22 12:00:00,
2013-02-22 07:10:00,22.5,14.3,30.39,North,0,0.7,1.6,60,0.00,,,0.00,fowsr,2013-02-22 12:10:00,
2013-02-22 07:15:00,22.6,14.5,30.39,NE,45,0.0,0.7,60,0.00,,,0.00,fowsr,2013-02-22 12:15:00,
2013-02-22 07:20:00,22.6,14.5,30.39,North,0,0.7,1.6,60,0.00,,,0.00,fowsr,2013-02-22 12:20:00,
2013-02-22 07:25:00,22.8,14.6,30.40,NW,315,0.0,0.7,60,0.00,,,0.00,fowsr,2013-02-22 12:25:00,
2013-02-22 07:30:00,23.0,14.5,30.40,NW,315,1.6,2.2,59,0.00,,,0.00,fowsr,2013-02-22 12:30:00,
2013-02-22 07:35:00,23.0,14.5,30.40,NE,45,0.0,1.6,59,0.00,,,0.00,fowsr,2013-02-22 12:35:00,
2013-02-22 07:40:00,23.2,14.7,30.40,NE,45,1.6,3.1,59,0.00,,,0.00,fowsr,2013-02-22 12:40:00,
2013-02-22 07:45:00,23.2,14.7,30.40,West,270,0.7,1.6,59,0.00,,,0.00,fowsr,2013-02-22 12:45:00,
2013-02-22 07:50:00,23.4,14.9,30.40,North,0,0.0,0.7,59,0.00,,,0.00,fowsr,2013-02-22 12:50:00,
2013-02-22 07:55:00,23.5,15.1,30.40,NW,315,0.0,0.7,59,0.00,,,0.00,fowsr,2013-02-22 12:55:00,
2013-02-22 08:00:00,23.7,15.2,30.40,West,270,1.6,2.2,59,0.00,,,0.00,fowsr,2013-02-22 13:00:00,
2013-02-22 08:05:00,23.7,15.2,30.40,NW,315,0.7,1.6,59,0.00,,,0.00,fowsr,2013-02-22 13:05:00,
2013-02-22 08:10:00,23.9,15.4,30.40,North,0,0.7,1.6,59,0.00,,,0.00,fowsr,2013-02-22 13:10:00,
2013-02-22 08:15:00,24.3,15.5,30.40,NE,45,1.6,2.2,58,0.00,,,0.00,fowsr,2013-02-22 13:15:00,
2013-02-22 08:25:00,24.4,15.6,30.40,North,0,0.0,0.7,58,0.00,,,0.00,fowsr,2013-02-22 13:25:00,
2013-02-22 08:30:00,24.8,15.7,30.40,North,0,0.7,2.2,57,0.00,,,0.00,fowsr,2013-02-22 13:30:00,
2013-02-22 08:35:00,25.2,16.0,30.41,North,0,0.7,1.6,57,0.00,,,0.00,fowsr,2013-02-22 13:35:00,
2013-02-22 08:40:00,25.5,16.1,30.41,West,270,1.6,2.2,56,0.00,,,0.00,fowsr,2013-02-22 13:40:00,
2013-02-22 08:45:00,25.7,16.3,30.41,WNW,292,2.2,3.8,56,0.00,,,0.00,fowsr,2013-02-22 13:45:00,
2013-02-22 08:50:00,25.9,16.4,30.41,North,0,1.6,3.1,56,0.00,,,0.00,fowsr,2013-02-22 13:50:00,
2013-02-22 08:55:00,26.1,16.3,30.41,NE,45,0.7,2.2,55,0.00,,,0.00,fowsr,2013-02-22 13:55:00,
2013-02-22 09:00:00,26.4,16.6,30.39,NE,45,0.7,2.2,55,0.00,,,0.00,fowsr,2013-02-22 14:00:00,
2013-02-22 09:05:00,26.8,16.7,30.39,NE,45,0.7,1.6,54,0.00,,,0.00,fowsr,2013-02-22 14:05:00,
2013-02-22 09:10:00,27.0,16.8,30.39,North,0,0.7,1.6,54,0.00,,,0.00,fowsr,2013-02-22 14:10:00,
2013-02-22 09:15:00,27.1,16.7,30.39,East,90,1.6,3.1,53,0.00,,,0.00,fowsr,2013-02-22 14:15:00,
2013-02-22 09:25:00,27.9,17.4,30.38,East,90,0.7,1.6,53,0.00,,,0.00,fowsr,2013-02-22 14:25:00,
2013-02-22 09:30:00,27.9,17.4,30.38,North,0,0.7,1.6,53,0.00,,,0.00,fowsr,2013-02-22 14:30:00,
2013-02-22 09:35:00,28.2,17.7,30.39,NE,45,1.6,2.2,53,0.00,,,0.00,fowsr,2013-02-22 14:35:00,
2013-02-22 09:40:00,28.6,19.2,30.39,SE,135,0.7,2.2,57,0.00,,,0.00,fowsr,2013-02-22 14:40:00,
2013-02-22 09:45:00,28.8,19.4,30.38,NE,45,1.6,3.1,57,0.00,,,0.00,fowsr,2013-02-22 14:45:00,
2013-02-22 09:50:00,28.9,19.5,30.38,NE,45,1.6,2.2,57,0.00,,,0.00,fowsr,2013-02-22 14:50:00,
2013-02-22 09:55:00,29.3,19.9,30.38,East,90,2.2,4.5,57,0.00,,,0.00,fowsr,2013-02-22 14:55:00,
2013-02-22 10:00:00,29.7,19.9,30.38,NE,45,2.2,3.1,56,0.00,,,0.00,fowsr,2013-02-22 15:00:00,
2013-02-22 10:05:00,30.0,20.3,30.38,North,0,2.2,3.8,56,0.00,,,0.00,fowsr,2013-02-22 15:05:00,
2013-02-22 10:10:00,30.2,20.1,30.38,West,270,0.7,2.2,55,0.00,,,0.00,fowsr,2013-02-22 15:10:00,
2013-02-22 10:15:00,30.9,20.8,30.38,NE,45,2.2,3.1,55,0.00,,,0.00,fowsr,2013-02-22 15:15:00,
2013-02-22 10:20:00,31.6,21.5,30.38,East,90,3.1,3.8,55,0.00,,,0.00,fowsr,2013-02-22 15:20:00,
2013-02-22 10:25:00,32.2,21.4,30.38,NE,45,1.6,2.2,53,0.00,,,0.00,fowsr,2013-02-22 15:25:00,
2013-02-22 10:30:00,32.2,21.1,30.38,NE,45,1.6,3.1,52,0.00,,,0.00,fowsr,2013-02-22 15:30:00,
2013-02-22 10:35:00,32.4,21.5,30.38,NE,45,1.6,3.1,53,0.00,,,0.00,fowsr,2013-02-22 15:35:00,
2013-02-22 10:40:00,32.7,21.9,30.38,East,90,1.6,4.5,53,0.00,,,0.00,fowsr,2013-02-22 15:40:00,
2013-02-22 10:50:00,33.1,21.9,30.38,East,90,1.6,3.8,52,0.00,,,0.00,fowsr,2013-02-22 15:50:00,
2013-02-22 10:55:00,32.9,21.4,30.37,SE,135,1.6,2.2,51,0.00,,,0.00,fowsr,2013-02-22 15:55:00,
2013-02-22 11:00:00,32.9,21.7,30.37,NE,45,1.6,3.1,52,0.00,,,0.00,fowsr,2013-02-22 16:00:00,
2013-02-22 11:05:00,32.9,22.0,30.37,SE,135,0.0,1.6,53,0.00,,,0.00,fowsr,2013-02-22 16:05:00,
2013-02-22 11:10:00,33.1,21.9,30.37,SE,135,3.1,4.5,52,0.00,,,0.00,fowsr,2013-02-22 16:10:00,
2013-02-22 11:15:00,33.1,21.9,30.37,NE,45,2.2,3.8,52,0.00,,,0.00,fowsr,2013-02-22 16:15:00,
2013-02-22 11:25:00,33.4,22.2,30.37,SE,135,1.6,3.1,52,0.00,,,0.00,fowsr,2013-02-22 16:25:00,
2013-02-22 11:30:00,33.8,22.2,30.38,NE,45,2.2,3.8,51,0.00,,,0.00,fowsr,2013-02-22 16:30:00,
2013-02-22 11:35:00,33.8,22.2,30.37,NE,45,2.2,3.8,51,0.00,,,0.00,fowsr,2013-02-22 16:35:00,
2013-02-22 11:40:00,34.7,22.7,30.37,NE,45,1.6,2.2,50,0.00,,,0.00,fowsr,2013-02-22 16:40:00,
2013-02-22 11:45:00,34.9,22.9,30.36,SE,135,1.6,3.1,50,0.00,,,0.00,fowsr,2013-02-22 16:45:00,
2013-02-22 11:50:00,35.4,23.0,30.36,East,90,1.6,2.2,49,0.00,,,0.00,fowsr,2013-02-22 16:50:00,
2013-02-22 11:55:00,36.0,23.2,30.36,ESE,112,2.2,3.1,48,0.00,,,0.00,fowsr,2013-02-22 16:55:00,
2013-02-22 12:00:00,36.3,23.5,30.36,East,90,1.6,2.2,48,0.00,,,0.00,fowsr,2013-02-22 17:00:00,
2013-02-22 12:05:00,36.1,23.0,30.36,East,90,3.1,4.5,47,0.00,,,0.00,fowsr,2013-02-22 17:05:00,
2013-02-22 12:10:00,35.8,22.3,30.36,NE,45,3.1,3.8,46,0.00,,,0.00,fowsr,2013-02-22 17:10:00,
2013-02-22 12:15:00,35.2,22.9,30.35,East,90,1.6,2.2,49,0.00,,,0.00,fowsr,2013-02-22 17:15:00,
2013-02-22 12:20:00,35.4,23.0,30.34,East,90,2.2,3.1,49,0.00,,,0.00,fowsr,2013-02-22 17:20:00,
2013-02-22 12:25:00,35.4,23.0,30.34,SE,135,0.7,3.1,49,0.00,,,0.00,fowsr,2013-02-22 17:25:00,
2013-02-22 12:35:00,35.8,23.0,30.34,East,90,3.1,4.5,48,0.00,,,0.00,fowsr,2013-02-22 17:35:00,
2013-02-22 12:40:00,36.1,23.4,30.33,NE,45,0.7,1.6,48,0.00,,,0.00,fowsr,2013-02-22 17:40:00,
2013-02-22 12:45:00,36.1,23.4,30.33,SE,135,0.7,2.2,48,0.00,,,0.00,fowsr,2013-02-22 17:45:00,
2013-02-22 12:50:00,36.5,23.7,30.33,NE,45,2.2,4.5,48,0.00,,,0.00,fowsr,2013-02-22 17:50:00,
2013-02-22 12:55:00,36.7,23.5,30.32,East,90,1.6,2.2,47,0.00,,,0.00,fowsr,2013-02-22 17:55:00,
2013-02-22 13:00:00,36.7,23.5,30.33,East,90,1.6,3.1,47,0.00,,,0.00,fowsr,2013-02-22 18:00:00,
2013-02-22 13:05:00,36.7,23.5,30.33,SE,135,3.8,5.4,47,0.00,,,0.00,fowsr,2013-02-22 18:05:00,
2013-02-22 13:10:00,36.7,23.5,30.32,SW,225,0.7,2.2,47,0.00,,,0.00,fowsr,2013-02-22 18:10:00,
2013-02-22 13:15:00,37.0,24.2,30.32,West,270,1.6,3.8,48,0.00,,,0.00,fowsr,2013-02-22 18:15:00,
2013-02-22 13:20:00,37.2,24.0,30.33,SE,135,1.6,2.2,47,0.00,,,0.00,fowsr,2013-02-22 18:20:00,
2013-02-22 13:25:00,37.2,24.0,30.33,SE,135,0.7,1.6,47,0.00,,,0.00,fowsr,2013-02-22 18:25:00,
2013-02-22 13:30:00,37.4,25.9,30.32,SE,135,1.6,3.8,52,0.00,,,0.00,fowsr,2013-02-22 18:30:00,
2013-02-22 13:35:00,37.4,25.9,30.32,SE,135,1.6,3.8,52,0.00,,,0.00,fowsr,2013-02-22 18:35:00,
2013-02-22 13:40:00,37.4,25.5,30.32,East,90,3.8,6.0,51,0.00,,,0.00,fowsr,2013-02-22 18:40:00,
2013-02-22 13:45:00,37.2,24.0,30.32,SE,135,1.6,3.1,47,0.00,,,0.00,fowsr,2013-02-22 18:45:00,
2013-02-22 13:50:00,37.4,25.9,30.32,East,90,3.1,4.5,52,0.00,,,0.00,fowsr,2013-02-22 18:50:00,
2013-02-22 13:55:00,37.2,24.3,30.31,SE,135,3.8,8.3,48,0.00,,,0.00,fowsr,2013-02-22 18:55:00,
2013-02-22 14:00:00,37.4,25.9,30.32,SW,225,0.0,0.7,52,0.00,,,0.00,fowsr,2013-02-22 19:00:00,
2013-02-22 14:05:00,37.6,26.3,30.31,East,90,0.7,2.2,53,0.00,,,0.00,fowsr,2013-02-22 19:05:00,
2013-02-22 14:10:00,37.6,26.0,30.32,West,270,0.0,0.7,52,0.00,,,0.00,fowsr,2013-02-22 19:10:00,
2013-02-22 14:15:00,37.9,26.7,30.31,East,90,0.7,2.2,53,0.00,,,0.00,fowsr,2013-02-22 19:15:00,
2013-02-22 14:20:00,38.1,26.5,30.31,East,90,3.1,5.4,52,0.00,,,0.00,fowsr,2013-02-22 19:20:00,
2013-02-22 14:30:00,37.9,26.3,30.31,East,90,2.2,3.8,52,0.00,,,0.00,fowsr,2013-02-22 19:30:00,
2013-02-22 14:35:00,37.9,26.3,30.31,East,90,0.0,1.6,52,0.00,,,0.00,fowsr,2013-02-22 19:35:00,
2013-02-22 14:40:00,37.8,26.2,30.31,SE,135,0.7,1.6,52,0.00,,,0.00,fowsr,2013-02-22 19:40:00,
2013-02-22 14:45:00,37.4,25.9,30.31,East,90,0.7,1.6,52,0.00,,,0.00,fowsr,2013-02-22 19:45:00,
2013-02-22 14:50:00,37.4,25.9,30.30,SW,225,1.6,3.8,52,0.00,,,0.00,fowsr,2013-02-22 19:50:00,
2013-02-22 14:55:00,37.2,24.3,30.30,East,90,1.6,3.1,48,0.00,,,0.00,fowsr,2013-02-22 19:55:00,
2013-02-22 15:00:00,37.2,24.3,30.30,South,180,0.7,1.6,48,0.00,,,0.00,fowsr,2013-02-22 20:00:00,
2013-02-22 15:05:00,37.2,24.7,30.30,SE,135,3.8,5.4,49,0.00,,,0.00,fowsr,2013-02-22 20:05:00,
2013-02-22 15:10:00,36.9,24.4,30.30,East,90,3.8,6.9,49,0.00,,,0.00,fowsr,2013-02-22 20:10:00,
2013-02-22 15:15:00,36.7,23.8,30.31,SE,135,0.7,2.2,48,0.00,,,0.00,fowsr,2013-02-22 20:15:00,
2013-02-22 15:20:00,36.7,24.2,30.31,SE,135,0.0,1.6,49,0.00,,,0.00,fowsr,2013-02-22 20:20:00,
2013-02-22 15:25:00,36.7,24.5,30.31,NE,45,3.8,5.4,50,0.00,,,0.00,fowsr,2013-02-22 20:25:00,
2013-02-22 15:30:00,36.5,24.4,30.31,East,90,0.7,1.6,50,0.00,,,0.00,fowsr,2013-02-22 20:30:00,
2013-02-22 15:35:00,36.5,24.4,30.30,SSW,202,3.1,4.5,50,0.00,,,0.00,fowsr,2013-02-22 20:35:00,
2013-02-22 15:40:00,36.5,24.7,30.31,ESE,112,0.7,1.6,51,0.00,,,0.00,fowsr,2013-02-22 20:40:00,
2013-02-22 15:45:00,36.5,24.7,30.31,SE,135,0.7,2.2,51,0.00,,,0.00,fowsr,2013-02-22 20:45:00,
2013-02-22 15:50:00,36.5,24.7,30.31,SE,135,0.0,1.6,51,0.00,,,0.00,fowsr,2013-02-22 20:50:00,
2013-02-22 15:55:00,36.5,24.7,30.31,South,180,0.0,0.0,51,0.00,,,0.00,fowsr,2013-02-22 20:55:00,
2013-02-22 16:00:00,36.5,24.7,30.31,East,90,0.0,0.7,51,0.00,,,0.00,fowsr,2013-02-22 21:00:00,
2013-02-22 16:05:00,36.5,24.7,30.31,SE,135,0.7,1.6,51,0.00,,,0.00,fowsr,2013-02-22 21:05:00,
2013-02-22 16:10:00,36.5,24.7,30.31,North,0,0.0,0.0,51,0.00,,,0.00,fowsr,2013-02-22 21:10:00,
2013-02-22 16:15:00,36.3,24.5,30.31,South,180,0.0,0.7,51,0.00,,,0.00,fowsr,2013-02-22 21:15:00,
2013-02-22 16:20:00,36.3,24.5,30.31,SE,135,0.0,0.0,51,0.00,,,0.00,fowsr,2013-02-22 21:20:00,
2013-02-22 16:25:00,36.3,24.9,30.31,SE,135,0.0,0.0,52,0.00,,,0.00,fowsr,2013-02-22 21:25:00,
2013-02-22 16:30:00,36.3,24.9,30.31,East,90,0.0,0.7,52,0.00,,,0.00,fowsr,2013-02-22 21:30:00,
2013-02-22 16:35:00,36.3,24.9,30.31,SE,135,0.0,0.7,52,0.00,,,0.00,fowsr,2013-02-22 21:35:00,
2013-02-22 16:40:00,36.3,24.9,30.31,East,90,0.0,0.0,52,0.00,,,0.00,fowsr,2013-02-22 21:40:00,
2013-02-22 16:45:00,36.3,24.9,30.31,East,90,0.7,1.6,52,0.00,,,0.00,fowsr,2013-02-22 21:45:00,
2013-02-22 16:50:00,36.3,24.9,30.31,East,90,1.6,3.1,52,0.00,,,0.00,fowsr,2013-02-22 21:50:00,
2013-02-22 16:55:00,36.1,25.0,30.31,East,90,1.6,2.2,53,0.00,,,0.00,fowsr,2013-02-22 21:55:00,
2013-02-22 17:00:00,36.1,25.0,30.31,East,90,0.7,2.2,53,0.00,,,0.00,fowsr,2013-02-22 22:00:00,
2013-02-22 17:05:00,36.0,24.8,30.30,SE,135,1.6,2.2,53,0.00,,,0.00,fowsr,2013-02-22 22:05:00,
2013-02-22 17:10:00,36.0,24.8,30.31,SE,135,0.0,0.0,53,0.00,,,0.00,fowsr,2013-02-22 22:10:00,
2013-02-22 17:15:00,36.0,24.8,30.31,East,90,0.7,2.2,53,0.00,,,0.00,fowsr,2013-02-22 22:15:00,
2013-02-22 17:20:00,36.0,25.2,30.31,East,90,2.2,3.1,54,0.00,,,0.00,fowsr,2013-02-22 22:20:00,
2013-02-22 17:25:00,36.0,25.2,30.31,SE,135,3.1,3.8,54,0.00,,,0.00,fowsr,2013-02-22 22:25:00,
2013-02-22 17:30:00,35.8,25.0,30.31,SE,135,1.6,3.1,54,0.00,,,0.00,fowsr,2013-02-22 22:30:00,
2013-02-22 17:35:00,35.8,25.0,30.30,East,90,1.6,2.2,54,0.00,,,0.00,fowsr,2013-02-22 22:35:00,
2013-02-22 17:40:00,35.6,25.1,30.30,NE,45,3.8,6.0,55,0.00,,,0.00,fowsr,2013-02-22 22:40:00,
2013-02-22 17:45:00,35.6,25.1,30.30,East,90,1.6,3.1,55,0.00,,,0.00,fowsr,2013-02-22 22:45:00,
2013-02-22 17:50:00,35.6,25.1,30.31,East,90,0.0,1.6,55,0.00,,,0.00,fowsr,2013-02-22 22:50:00,
2013-02-22 17:55:00,35.4,25.6,30.31,SE,135,2.2,3.8,57,0.00,,,0.00,fowsr,2013-02-22 22:55:00,
2013-02-22 18:00:00,35.4,25.9,30.30,East,90,3.8,5.4,58,0.00,,,0.00,fowsr,2013-02-22 23:00:00,
2013-02-22 18:05:00,35.2,25.7,30.29,East,90,3.8,7.6,58,0.00,,,0.00,fowsr,2013-02-22 23:05:00,
2013-02-22 18:10:00,35.2,26.0,30.30,South,180,0.7,1.6,59,0.00,,,0.00,fowsr,2013-02-22 23:10:00,
2013-02-22 18:15:00,35.2,26.0,30.29,East,90,2.2,3.8,59,0.00,,,0.00,fowsr,2013-02-22 23:15:00,
2013-02-22 18:20:00,35.1,25.8,30.30,SE,135,0.7,2.2,59,0.00,,,0.00,fowsr,2013-02-22 23:20:00,
2013-02-22 18:25:00,35.1,26.1,30.30,East,90,0.7,1.6,60,0.00,,,0.00,fowsr,2013-02-22 23:25:00,
2013-02-22 18:30:00,35.1,26.1,30.30,East,90,0.7,2.2,60,0.00,,,0.00,fowsr,2013-02-22 23:30:00,
2013-02-22 18:35:00,34.9,26.2,30.30,East,90,2.2,3.1,61,0.00,,,0.00,fowsr,2013-02-22 23:35:00,
2013-02-22 18:40:00,34.9,26.2,30.30,SE,135,0.7,1.6,61,0.00,,,0.00,fowsr,2013-02-22 23:40:00,
2013-02-22 18:45:00,34.9,26.2,30.31,East,90,0.7,2.2,61,0.00,,,0.00,fowsr,2013-02-22 23:45:00,
2013-02-22 18:50:00,34.7,26.3,30.31,SE,135,0.7,1.6,62,0.00,,,0.00,fowsr,2013-02-22 23:50:00,
2013-02-22 19:00:00,34.5,26.2,30.32,East,90,1.6,2.2,62,0.00,,,0.00,fowsr,2013-02-23 00:00:00,
2013-02-22 19:05:00,34.5,26.4,30.31,NE,45,1.6,3.1,63,0.00,,,0.00,fowsr,2013-02-23 00:05:00,
2013-02-22 19:10:00,34.5,26.4,30.32,SE,135,1.6,3.1,63,0.00,,,0.00,fowsr,2013-02-23 00:10:00,
2013-02-22 19:15:00,34.3,26.3,30.32,SE,135,0.0,0.7,63,0.00,,,0.00,fowsr,2013-02-23 00:15:00,
2013-02-22 19:20:00,34.3,26.3,30.32,East,90,2.2,3.8,63,0.00,,,0.00,fowsr,2013-02-23 00:20:00,
2013-02-22 19:25:00,34.3,26.3,30.32,SE,135,1.6,2.2,63,0.00,,,0.00,fowsr,2013-02-23 00:25:00,
2013-02-22 19:35:00,34.3,26.3,30.31,East,90,1.6,2.2,63,0.00,,,0.00,fowsr,2013-02-23 00:35:00,
2013-02-22 19:40:00,34.2,26.1,30.32,North,0,2.2,3.8,63,0.00,,,0.00,fowsr,2013-02-23 00:40:00,
2013-02-22 19:45:00,34.2,26.1,30.32,South,180,0.7,2.2,63,0.00,,,0.00,fowsr,2013-02-23 00:45:00,
2013-02-22 19:50:00,34.2,26.4,30.32,East,90,1.6,3.1,64,0.00,,,0.00,fowsr,2013-02-23 00:50:00,
2013-02-22 19:55:00,34.2,26.4,30.32,East,90,1.6,2.2,64,0.00,,,0.00,fowsr,2013-02-23 00:55:00,
2013-02-22 20:00:00,34.2,26.4,30.32,East,90,0.7,1.6,64,0.00,,,0.00,fowsr,2013-02-23 01:00:00,
2013-02-22 20:05:00,34.2,26.4,30.32,East,90,1.6,2.2,64,0.00,,,0.00,fowsr,2013-02-23 01:05:00,
2013-02-22 20:10:00,34.2,26.4,30.32,SE,135,0.0,0.7,64,0.00,,,0.00,fowsr,2013-02-23 01:10:00,
2013-02-22 20:15:00,34.2,26.4,30.32,SE,135,0.0,0.0,64,0.00,,,0.00,fowsr,2013-02-23 01:15:00,
2013-02-22 20:25:00,34.0,26.4,30.31,East,90,0.7,1.6,65,0.00,,,0.00,fowsr,2013-02-23 01:25:00,
2013-02-22 20:30:00,34.0,26.4,30.31,East,90,0.7,1.6,65,0.00,,,0.00,fowsr,2013-02-23 01:30:00,
2013-02-22 20:35:00,34.0,26.4,30.31,East,90,0.7,2.2,65,0.00,,,0.00,fowsr,2013-02-23 01:35:00,
2013-02-22 20:40:00,34.0,26.4,30.31,East,90,0.7,1.6,65,0.00,,,0.00,fowsr,2013-02-23 01:40:00,
2013-02-22 20:50:00,34.0,26.7,30.30,SE,135,0.7,1.6,66,0.00,,,0.00,fowsr,2013-02-23 01:50:00,
2013-02-22 20:55:00,34.0,26.7,30.30,East,90,1.6,2.2,66,0.00,,,0.00,fowsr,2013-02-23 01:55:00,
2013-02-22 21:00:00,34.0,26.7,30.30,East,90,1.6,2.2,66,0.00,,,0.00,fowsr,2013-02-23 02:00:00,
2013-02-22 21:05:00,33.8,26.5,30.30,East,90,0.7,2.2,66,0.00,,,0.00,fowsr,2013-02-23 02:05:00,
2013-02-22 21:10:00,33.8,26.8,30.29,SE,135,0.7,1.6,67,0.00,,,0.00,fowsr,2013-02-23 02:10:00,
2013-02-22 21:15:00,33.8,26.8,30.29,East,90,2.2,4.5,67,0.00,,,0.00,fowsr,2013-02-23 02:15:00,
2013-02-22 21:25:00,34.0,27.0,30.29,East,90,1.6,2.2,67,0.00,,,0.00,fowsr,2013-02-23 02:25:00,
2013-02-22 21:30:00,34.0,27.0,30.29,SE,135,0.0,0.7,67,0.00,,,0.00,fowsr,2013-02-23 02:30:00,
2013-02-22 21:35:00,33.8,26.8,30.30,SE,135,0.0,0.0,67,0.00,,,0.00,fowsr,2013-02-23 02:35:00,
2013-02-22 21:40:00,33.8,26.8,30.29,NE,45,1.6,2.2,67,0.00,,,0.00,fowsr,2013-02-23 02:40:00,
2013-02-22 21:45:00,33.8,27.0,30.29,SE,135,0.0,0.0,68,0.00,,,0.00,fowsr,2013-02-23 02:45:00,
2013-02-22 21:55:00,33.8,27.0,30.30,SW,225,0.0,0.0,68,0.00,,,0.00,fowsr,2013-02-23 02:55:00,
2013-02-22 22:00:00,33.8,27.0,30.30,SE,135,0.0,0.0,68,0.00,,,0.00,fowsr,2013-02-23 03:00:00,
2013-02-22 22:05:00,33.8,27.0,30.30,SE,135,0.0,0.0,68,0.00,,,0.00,fowsr,2013-02-23 03:05:00,
2013-02-22 22:10:00,33.8,27.0,30.30,NW,315,0.0,0.0,68,0.00,,,0.00,fowsr,2013-02-23 03:10:00,
2013-02-22 22:20:00,33.6,27.1,30.29,NW,315,0.0,0.0,69,0.00,,,0.00,fowsr,2013-02-23 03:20:00,
2013-02-22 22:25:00,33.6,27.1,30.29,NW,315,0.0,0.0,69,0.00,,,0.00,fowsr,2013-02-23 03:25:00,
2013-02-22 22:30:00,33.6,27.1,30.29,SW,225,0.0,0.0,69,0.00,,,0.00,fowsr,2013-02-23 03:30:00,
2013-02-22 22:35:00,33.6,27.1,30.28,NE,45,0.0,0.0,69,0.00,,,0.00,fowsr,2013-02-23 03:35:00,
2013-02-22 22:40:00,33.6,27.1,30.28,NE,45,0.0,0.0,69,0.00,,,0.00,fowsr,2013-02-23 03:40:00,
2013-02-22 22:45:00,33.6,27.4,30.28,NE,45,0.0,0.0,70,0.00,,,0.00,fowsr,2013-02-23 03:45:00,
2013-02-22 22:50:00,33.4,27.2,30.27,NE,45,0.0,0.0,70,0.00,,,0.00,fowsr,2013-02-23 03:50:00,
2013-02-22 22:55:00,33.4,27.4,30.27,NE,45,0.0,0.0,71,0.00,,,0.00,fowsr,2013-02-23 03:55:00,
2013-02-22 23:00:00,33.4,27.4,30.26,East,90,0.0,0.0,71,0.00,,,0.00,fowsr,2013-02-23 04:00:00,
2013-02-22 23:05:00,33.4,27.4,30.26,East,90,0.0,0.0,71,0.00,,,0.00,fowsr,2013-02-23 04:05:00,
2013-02-22 23:15:00,33.4,27.7,30.25,SE,135,0.7,2.2,72,0.00,,,0.00,fowsr,2013-02-23 04:15:00,
2013-02-22 23:20:00,33.4,27.9,30.26,NE,45,1.6,2.2,73,0.00,,,0.00,fowsr,2013-02-23 04:20:00,
2013-02-22 23:25:00,33.4,27.9,30.26,East,90,0.7,1.6,73,0.00,,,0.00,fowsr,2013-02-23 04:25:00,
2013-02-22 23:30:00,33.4,27.9,30.26,SE,135,0.7,1.6,73,0.00,,,0.00,fowsr,2013-02-23 04:30:00,
2013-02-22 23:35:00,33.4,27.9,30.26,East,90,1.6,2.2,73,0.00,,,0.00,fowsr,2013-02-23 04:35:00,
2013-02-22 23:40:00,33.4,27.9,30.26,East,90,0.7,1.6,73,0.00,,,0.00,fowsr,2013-02-23 04:40:00,
2013-02-22 23:45:00,33.4,27.9,30.26,SE,135,0.0,0.0,73,0.00,,,0.00,fowsr,2013-02-23 04:45:00,
2013-02-22 23:50:00,33.4,27.9,30.26,East,90,0.7,1.6,73,0.00,,,0.00,fowsr,2013-02-23 04:50:00,